Location: Waco, TX
(31.5480°N, 97.1670°W)
Time: 11:33:11
(UTC-06:00)

ISS - All Passes

Search period start: 30 November 2023 00:00
Search period end: 10 December 2023 00:00
Orbit: 416 x 417 km, 51.6° (Epoch: 30 November)

Date Brightness Start Highest point End Pass type
(mag) Time Alt. Az. Time Alt. Az. Time Alt. Az.
30 Nov - 11:45:52 10° S 11:48:21 20° SE 11:50:53 10° ENE daylight
30 Nov - 13:22:03 10° W 13:24:57 27° NW 13:27:53 10° NNE daylight
30 Nov - 19:54:37 10° NNW 19:57:34 28° NE 20:00:30 10° E night (unlit)
30 Nov - 21:31:40 10° W 21:34:10 19° SW 21:36:37 10° S night (unlit)
01 Dec - 10:59:55 10° SE 11:00:08 10° SE 11:00:21 10° ESE daylight
01 Dec - 12:33:13 10° WSW 12:36:29 51° NW 12:39:46 10° NE daylight
01 Dec - 19:06:44 10° N 19:09:01 17° NE 19:11:16 10° ENE visible
01 Dec - 20:42:42 10° WNW 20:45:51 38° SW 20:48:58 10° SSE night (unlit)
02 Dec - 11:44:42 10° SW 11:48:02 77° SE 11:51:21 10° NE daylight
02 Dec - 13:24:02 10° NW 13:25:07 11° NNW 13:26:13 10° NNW daylight
02 Dec - 18:19:29 10° NNE 18:20:19 11° NNE 18:21:09 10° NE visible
02 Dec - 19:54:05 10° NW 19:57:26 83° SW 20:00:46 10° SE visible
03 Dec - 10:56:30 10° SSW 10:59:35 35° SE 11:02:40 10° ENE daylight
03 Dec - 12:34:02 10° W 12:36:23 18° NW 12:38:45 10° N daylight
03 Dec - 19:05:39 10° NNW 19:08:54 47° NE 19:12:08 10° ESE visible
03 Dec - 20:44:20 10° WSW 20:45:16 11° SW 20:46:12 10° SW night (unlit)
04 Dec - 10:08:48 10° S 10:11:09 18° SE 10:13:30 10° E daylight
04 Dec - 11:44:42 10° WSW 11:47:41 29° NW 11:50:41 10° NNE daylight
04 Dec - 18:17:22 10° NNW 18:20:14 25° NE 18:23:05 10° E visible
04 Dec - 19:54:13 10° WNW 19:56:50 21° SW 19:59:27 10° S visible
05 Dec - 10:55:43 10° WSW 10:59:00 57° NW 11:02:18 10° NE daylight
05 Dec - 17:29:20 10° N 17:31:26 16° NE 17:33:33 10° ENE daylight
05 Dec - 19:05:07 10° WNW 19:08:19 43° SW 19:11:29 10° SSE visible
06 Dec - 10:07:02 10° SW 10:10:20 67° SE 10:13:39 10° NE daylight
06 Dec - 11:45:58 10° WNW 11:47:22 12° NNW 11:48:46 10° N daylight
06 Dec - 18:16:19 10° NW 18:19:40 87° NE 18:23:00 10° SE visible
07 Dec - 09:18:42 10° SSW 09:21:41 31° SE 09:24:41 10° ENE daylight
07 Dec - 10:55:56 10° W 10:58:26 19° NW 11:00:55 10° NNE daylight
07 Dec - 17:27:42 10° NNW 17:30:54 42° NE 17:34:05 10° ESE daylight
07 Dec - 19:05:51 10° W 19:07:17 12° SW 19:08:44 10° SSW visible
08 Dec - 08:30:55 10° SSE 08:33:02 16° SE 08:35:10 10° E daylight
08 Dec - 10:06:28 10° WSW 10:09:31 33° NW 10:12:35 10° NNE daylight
08 Dec - 16:39:16 10° NNW 16:42:00 23° NE 16:44:44 10° E daylight
08 Dec - 18:15:53 10° WNW 18:18:39 24° SW 18:21:23 10° S visible
09 Dec - 09:17:20 10° SW 09:20:38 66° NW 09:23:57 10° NE daylight
09 Dec - 15:51:05 10° N 15:52:59 14° NNE 15:54:52 10° ENE daylight
09 Dec - 17:26:39 10° NW 17:29:53 50° SW 17:33:07 10° SSE daylight
